Change the Weather History Date:

Friday, December 31, 2004

  Actual Average Record
Temperature  
Mean Temperature 56 °F 35 °F  
Max Temperature 57 °F 43 °F 71 °F (1951)
Min Temperature 54 °F 27 °F 2 °F (1976)
Degree Days  
Heating Degree Days 10 30  
Month to date heating degree days 862  
Since 1 July heating degree days 1664  
Cooling Degree Days 0 0  
Month to date cooling degree days 0  
Year to date cooling degree days 1444  
Growing Degree Days 6 (Base 50)    
Moisture  
Dew Point 52 °F    
Average Humidity 89    
Maximum Humidity 100    
Minimum Humidity 69    
Precipitation  
Precipitation 0.10 in 0.11 in 1.56 in (1975)
Month to date precipitation 4.01  
Year to date precipitation 45.54  
Sea Level Pressure  
Sea Level Pressure 30.23 in    
Wind  
Wind Speed 8 mph (SSW)    
Max Wind Speed 18 mph    
Max Gust Speed 22 mph    
Visibility 6 miles    
Events Rain    
T = Trace of Precipitation, MM = Missing Value Source: NWS Daily Summary

Daily Weather History Graph

Daily Weather History Graph

Search for Another Location

Airport or City:

Trip Planner

Search our weather history database for the weather conditions in past years. The results will help you decide how hot, cold, wet, or windy it might be!

Date:

Astronomy

Dec. 31, 2004 Rise Set
Actual Time 7:59 AM EST 5:32 PM EST
Civil Twilight 7:29 AM EST 6:02 PM EST
Nautical Twilight 6:56 AM EST 6:35 PM EST
Astronomical Twilight 6:24 AM EST 7:07 PM EST
Moon 10:19 PM EST (12/31) 11:17 AM EST (12/31)
Length of Visible Light 10h 32m
Length of Day
9h 33m
Waning Gibbous, 78% of the Moon is Illuminated
Dec 31
Waning Gibbous
Jan 3
Last Quarter
Jan 10
New
Jan 17
First Quarter
Jan 25
Full

Hourly Weather History & Observations

Time (EST) Temp. Dew Point Humidity Pressure Visibility Wind Dir Wind Speed Gust Speed Precip Events Conditions
12:53 AM 55.0 °F 45.0 °F 69% 30.18 in 10.0 mi South 9.2 mph - N/A   Overcast
1:53 AM 55.0 °F 45.0 °F 69% 30.18 in 10.0 mi SSW 8.1 mph - N/A   Overcast
2:53 AM 54.0 °F 45.0 °F 72% 30.17 in 10.0 mi South 10.4 mph - N/A   Overcast
3:53 AM 54.0 °F 46.0 °F 75% 30.17 in 10.0 mi South 9.2 mph - 0.00 in Rain Light Rain
4:53 AM 54.0 °F 46.0 °F 75% 30.16 in 10.0 mi SSW 9.2 mph - 0.00 in   Overcast
5:53 AM 55.4 °F 46.4 °F 72% 30.16 in 10.0 mi SSW 18.4 mph 21.9 mph N/A   Overcast
6:53 AM 54.0 °F 48.0 °F 80% 30.17 in 9.0 mi SSW 8.1 mph - 0.00 in   Overcast
7:53 AM 54.0 °F 48.9 °F 83% 30.17 in 10.0 mi SSW 9.2 mph - 0.01 in   Overcast
9:53 AM 55.0 °F 50.0 °F 83% 30.20 in 10.0 mi SW 9.2 mph - N/A   Overcast
10:53 AM 55.9 °F 50.0 °F 80% 30.22 in 10.0 mi SW 10.4 mph - N/A   Overcast
11:53 AM 55.9 °F 50.0 °F 80% 30.22 in 10.0 mi SW 13.8 mph 19.6 mph N/A   Overcast
12:53 PM 55.9 °F 51.1 °F 84% 30.21 in 10.0 mi SW 9.2 mph - N/A   Overcast
1:43 PM 55.4 °F 51.8 °F 88% 30.20 in 10.0 mi SW 12.7 mph - N/A   Overcast
2:24 PM 57.2 °F 51.8 °F 82% 30.19 in 10.0 mi SSW 9.2 mph - N/A   Overcast
2:53 PM 57.0 °F 52.0 °F 83% 30.20 in 10.0 mi SW 8.1 mph - N/A   Overcast
3:53 PM 57.0 °F 53.1 °F 87% 30.21 in 8.0 mi SSW 9.2 mph - N/A   Overcast
4:53 PM 55.9 °F 52.0 °F 87% 30.22 in 7.0 mi SSW 6.9 mph - N/A   Overcast
5:53 PM 55.9 °F 53.1 °F 90% 30.23 in 7.0 mi South 6.9 mph - N/A   Overcast
6:53 PM 55.9 °F 53.1 °F 90% 30.25 in 6.0 mi Variable 3.5 mph - N/A   Overcast
8:20 PM 55.4 °F 53.6 °F 94% 30.26 in 4.0 mi South 6.9 mph - N/A Rain Light Rain
8:42 PM 55.4 °F 53.6 °F 94% 30.27 in 4.0 mi South 3.5 mph - 0.01 in Rain Light Rain
8:53 PM 55.9 °F 55.0 °F 97% 30.27 in 3.0 mi South 3.5 mph - 0.01 in   Overcast
8:57 PM 55.4 °F 55.4 °F 100% 30.27 in 3.0 mi Variable 3.5 mph - N/A   Overcast
9:04 PM 55.4 °F 55.4 °F 100% 30.27 in 3.0 mi South 4.6 mph - N/A   Overcast
9:36 PM 55.4 °F 55.4 °F 100% 30.28 in 3.0 mi SSW 4.6 mph - N/A   Overcast
9:53 PM 55.0 °F 55.0 °F 100% 30.28 in 3.0 mi SSE 4.6 mph - 0.01 in Rain Light Rain
10:01 PM 55.4 °F 55.4 °F 100% 30.28 in 2.0 mi South 4.6 mph - N/A Rain Rain
10:35 PM 55.4 °F 55.4 °F 100% 30.28 in 2.0 mi South 4.6 mph - 0.05 in   Overcast
10:53 PM 55.9 °F 55.0 °F 97% 30.29 in 2.5 mi Calm Calm - 0.05 in   Overcast
11:01 PM 55.4 °F 55.4 °F 100% 30.29 in 2.0 mi Calm Calm - N/A   Overcast
11:20 PM 55.4 °F 55.4 °F 100% 30.29 in 1.8 mi Calm Calm - 0.01 in Rain Light Rain
11:27 PM 55.4 °F 55.4 °F 100% 30.29 in 2.0 mi Calm Calm - 0.01 in Rain Light Rain
11:35 PM 55.4 °F 55.4 °F 100% 30.29 in 1.8 mi Calm Calm - 0.01 in Rain Light Rain
11:53 PM 55.0 °F 55.0 °F 100% 30.30 in 1.5 mi Calm Calm - 0.02 in Rain Light Rain